Weather History for Shishmaref, AK

Change the Weather History Date:

Wednesday, March 19, 2014

  Actual Average Record
Temperature  
Mean Temperature 0 °F -  
Max Temperature 10 °F 6 °F 35 °F (1998)
Min Temperature -9 °F -3 °F -23 °F (1999)
Degree Days  
Heating Degree Days 64    
Moisture  
Dew Point -15 °F    
Average Humidity 57    
Maximum Humidity 100    
Minimum Humidity 4    
Precipitation  
Precipitation 0.00 in - - ()
Sea Level Pressure  
Sea Level Pressure 30.58 in    
Wind  
Wind Speed 6 mph (SE)    
Max Wind Speed 10 mph    
Max Gust Speed -    
Visibility 10 miles    
Events      
Averages and records for this station are not official NWS values.
T = Trace of Precipitation, MM = Missing Value Source: NWS Daily Summary

Daily Weather History Graph

Daily Weather History Graph

Search for Another Location

Airport:

Trip Planner

Search our weather history database for the weather conditions in past years. The results will help you decide how hot, cold, wet, or windy it might be!

Date:

Astronomy

Mar. 19, 2014 Rise Set
Actual Time 9:07 AM AKDT 9:18 PM AKDT
Civil Twilight 8:15 AM AKDT 10:10 PM AKDT
Nautical Twilight 7:12 AM AKDT 11:14 PM AKDT
Astronomical Twilight 5:57 AM AKDT 12:30 AM AKDT
Moon 12:58 AM AKDT (3/19) 9:21 AM AKDT (3/19)
Length of Visible Light 13h 54m
Length of Day
12h 11m
Waning Gibbous, 90% of the Moon is Illuminated
Mar 19
Waning Gibbous
Mar 23
Last Quarter
Mar 30
New
Apr 7
First Quarter
Apr 14
Full

Hourly Weather History & Observations

Time (AKDT) Temp. Windchill Dew Point Humidity Pressure Visibility Wind Dir Wind Speed Gust Speed Precip Events Conditions
12:16 AM -9.4 °F -26.8 °F -11.2 °F 92% 30.46 in 10.0 mi WSW 9.2 mph - N/A   Clear
12:36 AM -7.6 °F -23.4 °F -7.6 °F 100% 30.46 in 10.0 mi WSW 8.1 mph - N/A   Clear
12:56 AM -7.6 °F -20.6 °F -14.8 °F 71% 30.47 in 10.0 mi WSW 5.8 mph - N/A   Clear
1:16 AM -7.6 °F -22.1 °F -9.4 °F 92% 30.48 in 10.0 mi WSW 6.9 mph - N/A   Clear
1:36 AM -9.4 °F -25.6 °F -14.8 °F 77% 30.48 in 10.0 mi WSW 8.1 mph - N/A   Clear
1:56 AM -9.4 °F -22.7 °F -11.2 °F 92% 30.49 in 10.0 mi WSW 5.8 mph - N/A   Clear
2:16 AM -9.4 °F -25.6 °F -13.0 °F 84% 30.50 in 10.0 mi WSW 8.1 mph - N/A   Clear
2:36 AM -7.6 °F -25.7 °F -7.6 °F 100% 30.50 in 10.0 mi WSW 10.4 mph - N/A   Clear
2:56 AM -4.0 °F -20.2 °F -7.6 °F 85% 30.50 in 10.0 mi WSW 9.2 mph - N/A   Clear
3:16 AM -5.8 °F -19.9 °F -11.2 °F 77% 30.51 in 10.0 mi SW 6.9 mph - N/A   Clear
3:36 AM -5.8 °F -19.9 °F -14.8 °F 65% 30.51 in 10.0 mi SW 6.9 mph - N/A   Clear
3:56 AM -5.8 °F -16.7 °F -9.4 °F 84% 30.52 in 10.0 mi SW 4.6 mph - N/A   Clear
4:16 AM -4.0 °F -12.4 °F -14.8 °F 60% 30.52 in 10.0 mi WSW 3.5 mph - N/A   Clear
4:36 AM -7.6 °F - -14.8 °F 71% 30.53 in 10.0 mi Calm Calm - N/A   Clear
4:56 AM -9.4 °F - -14.8 °F 77% 30.53 in 10.0 mi Calm Calm - N/A   Clear
5:16 AM -7.6 °F - -16.6 °F 65% 30.53 in 10.0 mi Calm Calm - N/A   Clear
5:36 AM -7.6 °F -20.6 °F -11.2 °F 84% 30.54 in 10.0 mi SE 5.8 mph - N/A   Clear
5:56 AM -7.6 °F -20.6 °F -9.4 °F 92% 30.54 in 10.0 mi SE 5.8 mph - N/A   Clear
6:16 AM -7.6 °F -18.8 °F -14.8 °F 71% 30.54 in 10.0 mi SE 4.6 mph - N/A   Clear
6:36 AM -7.6 °F -22.1 °F -11.2 °F 84% 30.55 in 10.0 mi SE 6.9 mph - N/A   Clear
6:56 AM -7.6 °F -20.6 °F -11.2 °F 84% 30.56 in 10.0 mi SE 5.8 mph - N/A   Clear
7:16 AM -5.8 °F -18.4 °F -11.2 °F 77% 30.57 in 10.0 mi SE 5.8 mph - N/A   Clear
7:36 AM -5.8 °F -18.4 °F -11.2 °F 77% 30.57 in 10.0 mi SE 5.8 mph - N/A   Clear
7:56 AM -5.8 °F -18.4 °F -11.2 °F 77% 30.57 in 10.0 mi SE 5.8 mph - N/A   Clear
8:16 AM -5.8 °F -18.4 °F -9.4 °F 84% 30.57 in 10.0 mi SE 5.8 mph - N/A   Clear
8:36 AM -7.6 °F -20.6 °F -13.0 °F 77% 30.57 in 10.0 mi SE 5.8 mph - N/A   Clear
8:56 AM -5.8 °F -19.9 °F -11.2 °F 77% 30.57 in 10.0 mi SE 6.9 mph - N/A   Clear
9:16 AM -5.8 °F -21.2 °F -9.4 °F 84% 30.57 in 10.0 mi SE 8.1 mph - N/A   Clear
9:36 AM -5.8 °F -19.9 °F -9.4 °F 84% 30.57 in 10.0 mi SE 6.9 mph - N/A   Clear
9:56 AM -5.8 °F -18.4 °F -11.2 °F 77% 30.58 in 10.0 mi SSE 5.8 mph - N/A   Clear
10:16 AM -5.8 °F -18.4 °F -25.6 °F 38% 30.58 in 10.0 mi SE 5.8 mph - N/A   Clear
10:36 AM -4.0 °F -17.8 °F - N/A% 30.58 in 10.0 mi SE 6.9 mph - N/A   Clear
10:56 AM -2.2 °F -14.2 °F -22.0 °F 39% 30.59 in 10.0 mi SE 5.8 mph - N/A   Clear
11:16 AM -2.2 °F -15.6 °F -20.2 °F 42% 30.59 in 10.0 mi SE 6.9 mph - N/A   Clear
11:36 AM -0.4 °F -12.0 °F -16.6 °F 46% 30.60 in 10.0 mi ESE 5.8 mph - N/A   Clear
11:56 AM -0.4 °F -12.0 °F -11.2 °F 60% 30.61 in 10.0 mi ESE 5.8 mph - N/A   Clear
12:16 PM 1.4 °F -9.9 °F -77.8 °F 4% 30.61 in 7.0 mi SE 5.8 mph - N/A   Clear
12:36 PM 1.4 °F -9.9 °F -29.2 °F 23% 30.61 in 9.0 mi SE 5.8 mph - N/A   Clear
12:56 PM 3.2 °F -4.2 °F -25.6 °F 25% 30.61 in 10.0 mi ESE 3.5 mph - N/A   Clear
1:16 PM 3.2 °F -6.2 °F -20.2 °F 33% 30.61 in 10.0 mi SE 4.6 mph - N/A   Clear
1:36 PM 3.2 °F -6.2 °F -16.6 °F 39% 30.62 in 10.0 mi SE 4.6 mph - N/A   Clear
1:56 PM 5.0 °F -5.6 °F -11.2 °F 47% 30.62 in 10.0 mi SE 5.8 mph - N/A   Clear
2:16 PM 5.0 °F -4.1 °F -7.6 °F 56% 30.63 in 10.0 mi ESE 4.6 mph - N/A   Clear
2:36 PM 6.8 °F -2.0 °F -5.8 °F 56% 30.62 in 10.0 mi SE 4.6 mph - N/A   Clear
2:56 PM 6.8 °F -0.1 °F -7.6 °F 52% 30.63 in 10.0 mi ESE 3.5 mph - N/A   Clear
3:16 PM 6.8 °F -0.1 °F -25.6 °F 21% 30.63 in 10.0 mi SE 3.5 mph - N/A   Clear
3:36 PM 8.6 °F 2.0 °F -20.2 °F 26% 30.63 in 10.0 mi SE 3.5 mph - N/A   Clear
3:56 PM 8.6 °F 0.1 °F -14.8 °F 34% 30.63 in 10.0 mi SE 4.6 mph - N/A   Clear
4:16 PM 8.6 °F 0.1 °F -9.4 °F 44% 30.63 in 10.0 mi ESE 4.6 mph - N/A   Clear
4:36 PM 8.6 °F 0.1 °F -4.0 °F 57% 30.63 in 10.0 mi SE 4.6 mph - N/A   Clear
4:56 PM 10.4 °F 2.2 °F -0.4 °F 62% 30.63 in 10.0 mi ESE 4.6 mph - N/A   Clear
5:16 PM 10.4 °F 2.2 °F -20.2 °F 24% 30.63 in 10.0 mi ESE 4.6 mph - N/A   Clear
5:36 PM 10.4 °F 0.8 °F -16.6 °F 29% 30.63 in 10.0 mi ESE 5.8 mph - N/A   Clear
5:56 PM 10.4 °F 0.8 °F -16.6 °F 29% 30.63 in 10.0 mi ESE 5.8 mph - N/A   Clear
6:16 PM 8.6 °F -1.3 °F -9.4 °F 44% 30.63 in 10.0 mi ESE 5.8 mph - N/A   Clear
6:36 PM 8.6 °F 0.1 °F -5.8 °F 52% 30.62 in 10.0 mi SE 4.6 mph - N/A   Clear
6:56 PM 8.6 °F 0.1 °F -2.2 °F 62% 30.63 in 10.0 mi SE 4.6 mph - N/A   Clear
7:16 PM 6.8 °F -2.0 °F - N/A% 30.63 in 10.0 mi SE 4.6 mph - N/A   Clear
7:36 PM 6.8 °F -3.5 °F -23.8 °F 23% 30.63 in 10.0 mi ESE 5.8 mph - N/A   Clear
7:56 PM 6.8 °F -5.9 °F -18.4 °F 31% 30.62 in 10.0 mi East 8.1 mph - N/A   Clear
8:16 PM 6.8 °F -4.8 °F -14.8 °F 37% 30.62 in 10.0 mi East 6.9 mph - N/A   Clear
8:36 PM 8.6 °F -3.7 °F -9.4 °F 44% 30.62 in 10.0 mi East 8.1 mph - N/A   Clear
8:56 PM 6.8 °F -5.9 °F -9.4 °F 48% 30.62 in 10.0 mi East 8.1 mph - N/A   Clear
9:16 PM 5.0 °F -6.9 °F -4.0 °F 66% 30.62 in 10.0 mi ESE 6.9 mph - N/A   Clear
9:36 PM 5.0 °F -6.9 °F -2.2 °F 72% 30.62 in 10.0 mi ESE 6.9 mph - N/A   Clear
9:56 PM 5.0 °F -6.9 °F -76.0 °F 4% 30.62 in 10.0 mi East 6.9 mph - N/A   Clear
10:16 PM 3.2 °F -11.3 °F -25.6 °F 25% 30.62 in 10.0 mi East 9.2 mph - N/A   Clear
10:36 PM 3.2 °F -11.3 °F -27.4 °F 23% 30.61 in 10.0 mi East 9.2 mph - N/A   Clear
10:56 PM 3.2 °F -9.1 °F -20.2 °F 33% 30.61 in 10.0 mi East 6.9 mph - N/A   Clear
11:16 PM 3.2 °F -11.3 °F -18.4 °F 36% 30.61 in 10.0 mi East 9.2 mph - N/A   Clear
11:36 PM 3.2 °F -12.2 °F -14.8 °F 43% 30.61 in 10.0 mi ESE 10.4 mph - N/A   Clear
11:56 PM 3.2 °F -12.2 °F -13.0 °F 47% 30.61 in 10.0 mi East 10.4 mph - N/A   Clear